星链-4036 (STARLINK-4036 )

导读

STARLINK-4036是美国太空探索技术公司星链星座的成员,于2022年6月17日发射入轨。星链计划旨在构建全球卫星互联网,为全球偏远地区、海洋等网络薄弱区域提供高速互联网接入服务。该卫星遵循低轨卫星星座部署方案,和同系列其他卫星配合,持续扩充星链网络容量,提升全球网络覆盖能力。

基本信息
目录编号:
52837
目录名称:
STARLINK-4036
国际标识:
2022-062H
轨道中心:
EARTH
卫星名称:
星链-4036
卫星全名:
星链-4036 (STARLINK-4036 )
卫星状态:
在轨 (已飞行1461 天)
发射日期:
2022-06-17 UTC
国别 :
美国 (US)
星等 :
--
轨道信息
数据来源 国际轨道数据
星历时间: 2026-06-17T10:33:25+0800
11小时前
查看轨道信息
半长轴: 6917.915km
偏心率: 0.0001093
轨道倾角: 53.161°
近地点辐角 91.374°
升交点赤经 307.726°
平近点角 268.738°
近地点: 539.021km
远地点: 540.535km
周期: 95.438分钟
每日圈数: 15.088288
详细信息
固有亮度:
5
最大亮度:
2.5
卫星平台:
Starlink v1.5
覆盖范围:
全球
运营商:
太空探索技术公司
运营商所在国:
美国
制造商(研发单位):
太空探索技术公司
制造商所在国:
美国
使用方式:
暂无
卫星简介
星链(Starlink)计划是由太空探索技术公司(SpaceX)提出的一个巨型低轨卫星互联网星座项目,计划在2019年至2024年间在太空搭建由约1.2万颗卫星组成的“星链”网络,其中1584颗将部署在地球上空550千米处的近地轨道,并从2020年开始工作。该卫星仍在工作。
2D轨道图
3D轨道图
轨道高度分析图
轨道倾角分析图
轨道综合分析图
查看轨道综合分析图